Regional Weather Roundup
Issued by NWS

Home | Current Version | Previous Version | Graphics & Text | Print | Product List | Glossary On
Versions: 1 2 3 4 5 6 7 8 9 10 11 12 13 14 15 16 17 18 19 20 21 22 23 24 25 26 27 28 29 30 31 32 33 34 35 36 37 38 39 40 41 42 43 44 45 46 47 48 49 50
000
ASUS44 KMEG 040510
RWRTN
TENNESSEE HOURLY STATE WEATHER ROUNDUP
NATIONAL WEATHER SERVICE MEMPHIS TN
1200 AM CDT TUE AUG 04 2015

TNZ002-004-019-021-049-052-054-088>092-040600-
WEST TENNESSEE

CITY           SKY/WX    TMP DP  RH WIND       PRES   REMARKS
MEMPHIS INTL   MOCLDY    84  69  60 CALM      29.94S
NWS MEMPHIS      N/A     77 N/A N/A MISG        N/A
JACKSON        CLEAR     75  71  87 CALM      29.94F
DYERSBURG        N/A    N/A N/A N/A MISG        N/A
PARIS          CLEAR     70  66  88 CALM      29.95
LEXINGTON      CLEAR     73  73 100 CALM      29.95S
$$

TNZ008-025-027-028-033-062-065-066-040600-
NORTH MIDDLE TENNESSEE

CITY           SKY/WX    TMP DP  RH WIND       PRES   REMARKS
NASHVILLE      CLEAR     79  69  71 CALM      29.95S
CLARKSVILLE    CLEAR     73  70  90 CALM      29.94S
SMYRNA         CLEAR     74  72  93 CALM      29.96R
CROSSVILLE     CLEAR     71  67  87 CALM      30.04S
$$

TNZ061-075-076-078-094-096-097-040600-
SOUTH MIDDLE TENNESSEE

CITY           SKY/WX    TMP DP  RH WIND       PRES   REMARKS
FAYETTEVILLE   CLEAR     73  68  83 MISG      29.98S
TULLAHOMA      CLEAR     72  68  88 CALM      30.00S
WINCHESTER     CLEAR     70  68  94 CALM      29.99
MCMINNVILLE    CLEAR     72  72 100 CALM      29.99
COLUMBIA       CLEAR     75  75 100 S3        29.95
SHELBYVILLE    CLEAR     73  72  94 E3        29.98S
$$

TNZ017-018-042-046-047-040600-
NORTHEAST TENNESSEE

CITY           SKY/WX    TMP DP  RH WIND       PRES   REMARKS
TRI CITIES     PTCLDY    65  61  87 NE3       30.02R
ELIZABETHTON   CLEAR     64  57  77 CALM      30.05
$$

TNZ012-013-036-069-073-074-040600-
CENTRAL EAST TENNESSEE

CITY           SKY/WX    TMP DP  RH WIND       PRES   REMARKS
KNOXVILLE      CLEAR     74  65  73 CALM      29.98R
OAK RIDGE      CLEAR     74  68  81 CALM      30.00R
GATLINBURG     CLEAR     68  61  77 CALM      29.99
MORRISTOWN     CLEAR     70  61  73 CALM      30.01S
$$

TNZ083-085-099-040600-
SOUTHEAST TENNESSEE

CITY           SKY/WX    TMP DP  RH WIND       PRES   REMARKS
CHATTANOOGA    CLEAR     77  67  71 CALM      29.97R
$$

SKY/WX REPORTED AS FAIR MEANS FEW OR NO CLOUDS BELOW
12 THOUSAND FEET.



USA.gov is the U.S. government's official web portal to all federal, state and local government web resources and services.